Location: Newark
(36.9825°N, 30.4647°E)
Time: 14:20:43
(UTC+00:00)

Hubble Space Telescope - Pass Details

Date: 27 October 2019
Orbit: 536 x 540 km, 28.5° (Epoch: 19 November)

Event Time Altitude Azimuth Distance (km) Brightness Sun altitude
Rises 03:26:43 0° 214° (SW) 2,663 4.1 -10.6°
Reaches altitude 10° 03:30:21 10° 181° (S) 1,775 3.5 -9.9°
Maximum altitude 03:31:48 12° 160° (SSE) 1,673 3.7 -9.6°
Drops below altitude 10° 03:33:15 10° 139° (SE) 1,776 4.2 -9.3°
Sets 03:36:54 0° 107° (ESE) 2,668 6.6 -8.6°
